Pagina principală
METAR-TAF:

METAR-TAF

Aeroporturi :

Valledupar, Columbia

Latitudine: 10-26N, longitudine: 073-15W, elevație: 138 m

Observații meteo curente

Raportul a fost făcut în urmă cu 1 oră și 30 de minute, la 03:00 UTC
Vânt 12 kt de la Nord-est
Temperatură 30°C
Umiditate 70%
Presiune 1013 hPa
Vizibilitate de 10 km sau mai mult
Nori puțini la o înălțime de 1500 picior

METAR: SKVP 210300Z 05012KT 9999 FEW015 30/24 Q1013

Ora: 23:30 (04:30 UTC)


TAF: lipsă

Observații și prognoze meteo pentru peste 4.000 de aeroporturi (rapoarte METAR și TAF).

Stațiile disponibile sunt reprezentate pe hartă prin puncte galbene și roșii.

Țineți indicatorul mouse-ului pe punctul dorit pentru a vedea denumirea stației.

Apoi, faceți clic pentru a vedea observațiile și prognozele meteorologice.

Pentru a schimba harta: Pentru mărire, faceți clic pe butoanele verzi cu cruce neagră; pentru micșorare, pe butonul verde cu o liniuță; pentru hărți învecinate, pe săgețile verzi.


METAR-TAF: